This demonstration page uses our WeatherBlox Daily Observations layout. Learn more.

Hourly Observations for January 1, 2016

Temp ( °F °C ) Dew Point ( °F °C ) Humidity (%) Winds ( mph kmh ) Pressure ( in mb ) Visibility ( mi km ) Precip ( " mm )
12:15 am 00:15 Clear 19 -7.2 13 -10.5 78 78 WNW 7 11 30.62 1037 10 16.0934 0 0
12:35 am 00:35 Clear 18 -7.8 13 -10.8 79 79 WNW 7 11 30.62 1037 10 16.0934 0 0
12:55 am 00:55 Clear 18 -8 13 -10.8 81 81 WNW 8 13 30.62 1037 10 16.0934 0 0
1:15 am 01:15 Clear 17 -8.2 12 -11 80 80 WNW 5 7 30.62 1037 10 16.0934 0 0
1:35 am 01:35 Clear 16 -8.9 11 -11.4 82 82 W 7 11 30.65 1038 10 16.0934 0 0
1:55 am 01:55 Clear 16 -9 12 -11.3 84 84 W 7 11 30.65 1038 10 16.0934 0 0
2:15 am 02:15 Clear 17 -8.6 12 -11 83 83 W 7 11 30.65 1038 10 16.0934 0 0
2:35 am 02:35 Clear 16 -8.7 11 -11.5 80 80 W 6 9 30.65 1038 10 16.0934 0 0
2:55 am 02:55 Clear 17 -8.6 11 -11.4 80 80 WNW 7 11 30.65 1038 10 16.0934 0 0
3:15 am 03:15 Clear 16 -8.7 11 -11.5 80 80 W 7 11 30.65 1038 10 16.0934 0 0
3:35 am 03:35 Clear 17 -8.4 12 -11.3 80 80 W 8 13 30.62 1037 10 16.0934 0 0
3:55 am 03:55 Clear 17 -8.4 11 -11.5 79 79 W 7 11 30.59 1036 10 16.0934 0 0
4:15 am 04:15 Clear 17 -8.6 11 -11.8 78 78 W 7 11 30.62 1037 10 16.0934 0 0
4:35 am 04:35 Clear 16 -9 10 -12 79 79 W 8 13 30.62 1037 10 16.0934 0 0
4:55 am 04:55 Clear 15 -9.3 10 -12.1 80 80 WSW 6 9 30.62 1037 10 16.0934 0 0
5:15 am 05:15 Clear 15 -9.4 10 -12 82 82 W 8 13 30.62 1037 10 16.0934 0 0
5:35 am 05:35 Clear 15 -9.2 10 -12 80 80 W 8 13 30.62 1037 10 16.0934 0 0
5:55 am 05:55 Clear 16 -9.1 11 -11.9 80 80 W 10 17 30.62 1037 10 16.0934 0 0
6:15 am 06:15 Clear 15 -9.3 10 -12 81 81 W 10 17 30.62 1037 10 16.0934 0 0
6:35 am 06:35 Clear 16 -9 11 -11.5 82 82 W 12 19 30.62 1037 10 16.0934 0 0
6:55 am 06:55 Clear 15 -9.4 10 -12 82 82 W 13 20 30.62 1037 10 16.0934 0 0
7:15 am 07:15 Clear 16 -9.1 10 -12 80 80 W 12 19 30.59 1036 10 16.0934 0 0
7:35 am 07:35 Clear 16 -8.7 10 -12.1 77 77 W 13 20 30.59 1036 10 16.0934 0 0
7:55 am 07:55 Clear 16 -8.8 9 -12.6 74 74 W 14 22 30.59 1036 10 16.0934 0 0
8:15 am 08:15 Sunny 17 -8.5 9 -12.8 71 71 W 13 20 30.56 1035 10 16.0934 0 0
8:35 am 08:35 Sunny 17 -8.5 9 -12.7 72 72 W 14 22 30.56 1035 10 16.0934 0 0
8:55 am 08:55 Sunny 17 -8.3 9 -12.6 71 71 W 14 22 30.56 1035 10 16.0934 0 0
9:15 am 09:15 Sunny 17 -8.1 10 -12.5 71 71 W 16 26 30.56 1035 10 16.0934 0 0
9:35 am 09:35 Sunny 18 -7.6 11 -11.9 72 72 W 16 26 30.56 1035 10 16.0934 0 0
9:55 am 09:55 Sunny 20 -6.4 11 -11.6 67 67 W 14 22 30.53 1034 10 16.0934 0 0
10:15 am 10:15 Sunny 23 -5.2 12 -11.2 63 63 W 15 24 30.53 1034 10 16.0934 0 0
10:35 am 10:35 Sunny 24 -4.2 13 -10.8 60 60 W 15 24 30.53 1034 10 16.0934 0 0
10:55 am 10:55 Sunny 27 -2.6 12 -10.9 53 53 W 17 28 30.5 1033 10 16.0934 0 0
11:15 am 11:15 Sunny 29 -1.7 13 -10.8 50 50 W 16 26 30.48 1032 10 16.0934 0 0
11:35 am 11:35 Sunny 30 -0.9 13 -10.5 49 49 W 17 28 30.48 1032 10 16.0934 0 0
11:55 am 11:55 Sunny 32 0 14 -10 47 47 W 17 28 30.45 1031 10 16.0934 0 0
12:15 pm 12:15 Sunny 32 0.2 15 -9.5 49 49 W 18 30 30.42 1030 10 16.0934 0 0
12:35 pm 12:35 Sunny 34 1 16 -8.7 49 49 W 15 24 30.42 1030 10 16.0934 0 0
12:55 pm 12:55 Sunny 35 1.9 17 -8.1 48 48 W 18 30 30.39 1029 10 16.0934 0 0
1:15 pm 13:15 Sunny 37 2.6 17 -8.6 44 44 WSW 16 26 30.36 1028 10 16.0934 0 0
1:35 pm 13:35 Sunny 38 3.1 17 -8.3 43 43 W 20 31 30.36 1028 10 16.0934 0 0
1:55 pm 13:55 Sunny 39 3.8 17 -8.4 41 41 W 18 30 30.36 1028 10 16.0934 0 0
2:15 pm 14:15 Sunny 39 4 15 -9.4 37 37 W 16 26 30.36 1028 10 16.0934 0 0
2:35 pm 14:35 Sunny 40 4.4 15 -9.5 36 36 W 20 31 30.33 1027 10 16.0934 0 0
2:55 pm 14:55 Sunny 40 4.7 15 -9.6 35 35 W 18 30 30.3 1026 10 16.0934 0 0
3:15 pm 15:15 Sunny 41 4.8 15 -9.5 35 35 W 14 22 30.3 1026 10 16.0934 0 0
3:35 pm 15:35 Sunny 41 5 16 -9.1 36 36 W 15 24 30.3 1026 10 16.0934 0 0
3:55 pm 15:55 Sunny 41 5 15 -9.2 35 35 W 10 17 30.3 1026 10 16.0934 0 0
4:15 pm 16:15 Sunny 40 4.7 15 -9.6 35 35 W 10 17 30.3 1026 10 16.0934 0 0
4:35 pm 16:35 Sunny 40 4.3 15 -9.3 37 37 W 10 17 30.33 1027 10 16.0934 0 0
4:55 pm 16:55 Sunny 38 3.3 17 -8.5 42 42 WSW 9 15 30.33 1027 10 16.0934 0 0
5:15 pm 17:15 Sunny 37 2.6 16 -8.7 43 43 WSW 9 15 30.33 1027 10 16.0934 0 0
5:35 pm 17:35 Clear 35 1.9 17 -8.6 46 46 W 9 15 30.33 1027 10 16.0934 0 0
5:55 pm 17:55 Clear 27 -2.7 17 -8.3 66 66 WNW 6 9 30.5 1033 10 16.0934 0 0
6:15 pm 18:15 Clear 32 0 17 -8.5 53 53 W 10 17 30.36 1028 10 16.0934 0 0
6:35 pm 18:35 Clear 31 -0.7 16 -8.7 55 55 W 8 13 30.36 1028 10 16.0934 0 0
6:55 pm 18:55 Clear 31 -0.5 15 -9.5 51 51 WNW 8 13 30.36 1028 10 16.0934 0 0
7:15 pm 19:15 Clear 29 -1.9 15 -9.2 58 58 W 6 9 30.42 1030 10 16.0934 0 0
7:35 pm 19:35 Clear 26 -3.4 15 -9.2 65 65 W 7 11 30.42 1030 10 16.0934 0 0
7:55 pm 19:55 Clear 27 -2.8 15 -9.4 61 61 W 7 11 30.42 1030 10 16.0934 0 0
8:15 pm 20:15 Clear 26 -3.3 15 -9.7 62 62 W 8 13 30.42 1030 10 16.0934 0 0
8:35 pm 20:35 Clear 27 -2.8 15 -9.7 59 59 W 7 11 30.42 1030 10 16.0934 0 0
8:55 pm 20:55 Clear 27 -2.8 14 -9.8 59 59 W 9 15 30.42 1030 10 16.0934 0 0
9:15 pm 21:15 Clear 27 -2.7 14 -9.8 59 59 W 9 15 30.42 1030 10 16.0934 0 0
9:35 pm 21:35 Clear 27 -2.7 14 -9.9 58 58 W 8 13 30.42 1030 10 16.0934 0 0
9:55 pm 21:55 Clear 26 -3.5 14 -10 61 61 W 9 15 30.42 1030 10 16.0934 0 0
10:15 pm 22:15 Clear 25 -3.8 14 -10 62 62 W 8 13 30.45 1031 10 16.0934 0 0
10:35 pm 22:35 Clear 25 -3.9 14 -10.2 62 62 W 8 13 30.45 1031 10 16.0934 0 0
10:55 pm 22:55 Clear 24 -4.5 14 -10.1 65 65 WNW 7 11 30.45 1031 10 16.0934 0 0
11:15 pm 23:15 Clear 24 -4.5 14 -10.1 65 65 WNW 6 9 30.45 1031 10 16.0934 0 0
11:35 pm 23:35 Clear 23 -4.8 14 -10.1 67 67 W 8 13 30.45 1031 10 16.0934 0 0
11:55 pm 23:55 Clear 22 -5.6 13 -10.5 69 69 W 7 11 30.45 1031 10 16.0934 0 0

Powered by AerisWeather